Year,Month,Day,Hour,Minute,Value (Times are PST for temperature in C)
2015,07,02,00,00,19.70
2015,07,02,00,01,19.70
2015,07,02,00,02,19.70
2015,07,02,00,03,19.60
2015,07,02,00,04,19.60
2015,07,02,00,05,19.60
2015,07,02,00,06,19.60
2015,07,02,00,07,19.60
2015,07,02,00,08,19.60
2015,07,02,00,09,19.60
2015,07,02,00,10,19.60
2015,07,02,00,11,19.60
2015,07,02,00,12,19.60
2015,07,02,00,13,19.60
2015,07,02,00,14,19.60
2015,07,02,00,15,19.60
2015,07,02,00,16,19.60
2015,07,02,00,17,19.60
2015,07,02,00,18,19.50
2015,07,02,00,19,19.50
2015,07,02,00,20,19.50
2015,07,02,00,21,19.50
2015,07,02,00,22,19.40
2015,07,02,00,23,19.40
2015,07,02,00,24,19.40
2015,07,02,00,25,19.40
2015,07,02,00,26,19.40
2015,07,02,00,27,19.30
2015,07,02,00,28,19.30
2015,07,02,00,29,19.30
2015,07,02,00,30,19.30
2015,07,02,00,31,19.30
2015,07,02,00,32,19.30
2015,07,02,00,33,19.20
2015,07,02,00,34,19.20
2015,07,02,00,35,19.20
2015,07,02,00,36,19.20
2015,07,02,00,37,19.20
2015,07,02,00,38,19.20
2015,07,02,00,39,19.20
2015,07,02,00,40,19.10
2015,07,02,00,41,19.10
2015,07,02,00,42,19.10
2015,07,02,00,43,19.10
2015,07,02,00,44,19.10
2015,07,02,00,45,19.10
2015,07,02,00,46,19.10
2015,07,02,00,47,19.10
2015,07,02,00,48,19.10
2015,07,02,00,49,19.10
2015,07,02,00,50,19.10
2015,07,02,00,51,19.10
2015,07,02,00,52,19.10
2015,07,02,00,53,19.10
2015,07,02,00,54,19.10
2015,07,02,00,55,19.00
2015,07,02,00,56,19.00
2015,07,02,00,57,19.00
2015,07,02,00,58,19.00
2015,07,02,00,59,19.00
2015,07,02,01,00,18.90
2015,07,02,01,01,18.90
2015,07,02,01,02,18.90
2015,07,02,01,03,18.90
2015,07,02,01,04,18.90
2015,07,02,01,05,18.90
2015,07,02,01,06,18.90
2015,07,02,01,07,18.90
2015,07,02,01,08,18.80
2015,07,02,01,09,18.80
2015,07,02,01,10,18.80
2015,07,02,01,11,18.80
2015,07,02,01,12,18.80
2015,07,02,01,13,18.80
2015,07,02,01,14,18.80
2015,07,02,01,15,18.80
2015,07,02,01,16,18.80
2015,07,02,01,17,18.80
2015,07,02,01,18,18.80
2015,07,02,01,19,18.70
2015,07,02,01,20,18.70
2015,07,02,01,21,18.70
2015,07,02,01,22,18.70
2015,07,02,01,23,18.70
2015,07,02,01,24,18.70
2015,07,02,01,25,18.70
2015,07,02,01,26,18.70
2015,07,02,01,27,18.70
2015,07,02,01,28,18.70
2015,07,02,01,29,18.60
2015,07,02,01,30,18.60
2015,07,02,01,31,18.60
2015,07,02,01,32,18.60
2015,07,02,01,33,18.60
2015,07,02,01,34,18.50
2015,07,02,01,35,18.50
2015,07,02,01,36,18.50
2015,07,02,01,37,18.40
2015,07,02,01,38,18.40
2015,07,02,01,39,18.40
2015,07,02,01,40,18.40
2015,07,02,01,41,18.40
2015,07,02,01,42,18.40
2015,07,02,01,43,18.40
2015,07,02,01,44,18.40
2015,07,02,01,45,18.30
2015,07,02,01,46,18.30
2015,07,02,01,47,18.30
2015,07,02,01,48,18.30
2015,07,02,01,49,18.30
2015,07,02,01,50,18.30
2015,07,02,01,51,18.20
2015,07,02,01,52,18.20
2015,07,02,01,53,18.20
2015,07,02,01,54,18.20
2015,07,02,01,55,18.20
2015,07,02,01,56,18.20
2015,07,02,01,57,18.20
2015,07,02,01,58,18.20
2015,07,02,01,59,18.20
2015,07,02,02,00,18.10
2015,07,02,02,01,18.10
2015,07,02,02,02,18.20
2015,07,02,02,03,18.20
2015,07,02,02,04,18.20
2015,07,02,02,05,18.20
2015,07,02,02,06,18.20
2015,07,02,02,07,18.20
2015,07,02,02,08,18.10
2015,07,02,02,09,18.10
2015,07,02,02,10,18.10
2015,07,02,02,11,18.10
2015,07,02,02,12,18.10
2015,07,02,02,13,18.10
2015,07,02,02,14,18.10
2015,07,02,02,15,18.10
2015,07,02,02,16,18.10
2015,07,02,02,17,18.10
2015,07,02,02,18,18.10
2015,07,02,02,19,18.10
2015,07,02,02,20,18.00
2015,07,02,02,21,18.00
2015,07,02,02,22,18.00
2015,07,02,02,23,18.00
2015,07,02,02,24,18.00
2015,07,02,02,25,18.00
2015,07,02,02,26,18.00
2015,07,02,02,27,18.00
2015,07,02,02,28,18.00
2015,07,02,02,29,18.00
2015,07,02,02,30,18.00
2015,07,02,02,31,18.00
2015,07,02,02,32,18.00
2015,07,02,02,33,18.00
2015,07,02,02,34,18.00
2015,07,02,02,35,17.90
2015,07,02,02,36,17.90
2015,07,02,02,37,17.90
2015,07,02,02,38,17.90
2015,07,02,02,39,17.90
2015,07,02,02,40,17.90
2015,07,02,02,41,17.90
2015,07,02,02,42,17.90
2015,07,02,02,43,17.90
2015,07,02,02,44,17.90
2015,07,02,02,45,17.90
2015,07,02,02,46,17.90
2015,07,02,02,47,17.90
2015,07,02,02,48,17.80
2015,07,02,02,49,17.90
2015,07,02,02,50,17.90
2015,07,02,02,51,17.90
2015,07,02,02,52,17.90
2015,07,02,02,53,18.00
2015,07,02,02,54,18.00
2015,07,02,02,55,18.00
2015,07,02,02,56,18.00
2015,07,02,02,57,17.90
2015,07,02,02,58,17.90
2015,07,02,02,59,17.90
2015,07,02,03,00,17.90
2015,07,02,03,01,17.90
2015,07,02,03,02,17.90
2015,07,02,03,03,17.80
2015,07,02,03,04,17.80
2015,07,02,03,05,17.80
2015,07,02,03,06,17.80
2015,07,02,03,07,17.80
2015,07,02,03,08,17.70
2015,07,02,03,09,17.70
2015,07,02,03,10,17.70
2015,07,02,03,11,17.70
2015,07,02,03,12,17.70
2015,07,02,03,13,17.70
2015,07,02,03,14,17.70
2015,07,02,03,15,17.70
2015,07,02,03,16,17.70
2015,07,02,03,17,17.70
2015,07,02,03,18,17.70
2015,07,02,03,19,17.70
2015,07,02,03,20,17.70
2015,07,02,03,21,17.70
2015,07,02,03,22,17.70
2015,07,02,03,23,17.70
2015,07,02,03,24,17.70
2015,07,02,03,25,17.70
2015,07,02,03,26,17.70
2015,07,02,03,27,17.80
2015,07,02,03,28,17.80
2015,07,02,03,29,17.90
2015,07,02,03,30,17.90
2015,07,02,03,31,17.90
2015,07,02,03,32,17.90
2015,07,02,03,33,17.90
2015,07,02,03,34,17.90
2015,07,02,03,35,18.00
2015,07,02,03,36,18.10
2015,07,02,03,37,18.20
2015,07,02,03,38,18.40
2015,07,02,03,39,18.50
2015,07,02,03,40,18.80
2015,07,02,03,41,19.10
2015,07,02,03,42,19.30
2015,07,02,03,43,19.50
2015,07,02,03,44,19.70
2015,07,02,03,45,19.80
2015,07,02,03,46,19.80
2015,07,02,03,47,19.90
2015,07,02,03,48,19.90
2015,07,02,03,49,20.00
2015,07,02,03,50,20.00
2015,07,02,03,51,20.00
2015,07,02,03,52,20.00
2015,07,02,03,53,20.00
2015,07,02,03,54,20.00
2015,07,02,03,55,19.90
2015,07,02,03,56,19.90
2015,07,02,03,57,19.90
2015,07,02,03,58,19.90
2015,07,02,03,59,19.90
2015,07,02,04,00,19.80
2015,07,02,04,01,19.80
2015,07,02,04,02,19.80
2015,07,02,04,03,19.80
2015,07,02,04,04,19.80
2015,07,02,04,05,19.80
2015,07,02,04,06,19.80
2015,07,02,04,07,19.80
2015,07,02,04,08,19.80
2015,07,02,04,09,19.80
2015,07,02,04,10,19.70
2015,07,02,04,11,19.70
2015,07,02,04,12,19.70
2015,07,02,04,13,19.70
2015,07,02,04,14,19.60
2015,07,02,04,15,19.60
2015,07,02,04,16,19.60
2015,07,02,04,17,19.50
2015,07,02,04,18,19.50
2015,07,02,04,19,19.40
2015,07,02,04,20,19.40
2015,07,02,04,21,19.40
2015,07,02,04,22,19.30
2015,07,02,04,23,19.30
2015,07,02,04,24,19.30
2015,07,02,04,25,19.30
2015,07,02,04,26,19.20
2015,07,02,04,27,19.20
2015,07,02,04,28,19.20
2015,07,02,04,29,19.10
2015,07,02,04,30,19.10
2015,07,02,04,31,19.10
2015,07,02,04,32,19.00
2015,07,02,04,33,19.00
2015,07,02,04,34,19.00
2015,07,02,04,35,18.90
2015,07,02,04,36,18.90
2015,07,02,04,37,18.90
2015,07,02,04,38,18.90
2015,07,02,04,39,18.80
2015,07,02,04,40,18.80
2015,07,02,04,41,18.70
2015,07,02,04,42,18.70
2015,07,02,04,43,18.70
2015,07,02,04,44,18.60
2015,07,02,04,45,18.60
2015,07,02,04,46,18.60
2015,07,02,04,47,18.50
2015,07,02,04,48,18.50
2015,07,02,04,49,18.40
2015,07,02,04,50,18.40
2015,07,02,04,51,18.40
2015,07,02,04,52,18.40
2015,07,02,04,53,18.30
2015,07,02,04,54,18.30
2015,07,02,04,55,18.30
2015,07,02,04,56,18.30
2015,07,02,04,57,18.30
2015,07,02,04,58,18.30
2015,07,02,04,59,18.20
2015,07,02,05,00,18.20
2015,07,02,05,01,18.20
2015,07,02,05,02,18.20
2015,07,02,05,03,18.10
2015,07,02,05,04,18.10
2015,07,02,05,05,18.10
2015,07,02,05,06,18.10
2015,07,02,05,07,18.10
2015,07,02,05,08,18.10
2015,07,02,05,09,18.10
2015,07,02,05,10,18.10
2015,07,02,05,11,18.10
2015,07,02,05,12,18.00
2015,07,02,05,13,18.00
2015,07,02,05,14,18.00
2015,07,02,05,15,17.90
2015,07,02,05,16,17.90
2015,07,02,05,17,17.90
2015,07,02,05,18,17.90
2015,07,02,05,19,17.80
2015,07,02,05,20,17.80
2015,07,02,05,21,17.80
2015,07,02,05,22,17.70
2015,07,02,05,23,17.70
2015,07,02,05,24,17.70
2015,07,02,05,25,17.70
2015,07,02,05,26,17.70
2015,07,02,05,27,17.70
2015,07,02,05,28,17.70
2015,07,02,05,29,17.70
2015,07,02,05,30,17.70
2015,07,02,05,31,17.70
2015,07,02,05,32,17.70
2015,07,02,05,33,17.70
2015,07,02,05,34,17.70
2015,07,02,05,35,17.70
2015,07,02,05,36,17.70
2015,07,02,05,37,17.70
2015,07,02,05,38,17.70
2015,07,02,05,39,17.70
2015,07,02,05,40,17.70
2015,07,02,05,41,17.70
2015,07,02,05,42,17.80
2015,07,02,05,43,17.80
2015,07,02,05,44,17.80
2015,07,02,05,45,17.80
2015,07,02,05,46,17.80
2015,07,02,05,47,17.80
2015,07,02,05,48,17.80
2015,07,02,05,49,17.80
2015,07,02,05,50,17.80
2015,07,02,05,51,17.80
2015,07,02,05,52,17.80
2015,07,02,05,53,17.80
2015,07,02,05,54,17.80
2015,07,02,05,55,17.80
2015,07,02,05,56,17.80
2015,07,02,05,57,17.80
2015,07,02,05,58,17.80
2015,07,02,05,59,17.80
2015,07,02,06,00,17.80
2015,07,02,06,01,17.80
2015,07,02,06,02,17.80
2015,07,02,06,03,17.80
2015,07,02,06,04,17.80
2015,07,02,06,05,17.70
2015,07,02,06,06,17.70
2015,07,02,06,07,17.70
2015,07,02,06,08,17.70
2015,07,02,06,09,17.70
2015,07,02,06,10,17.70
2015,07,02,06,11,17.70
2015,07,02,06,12,17.70
2015,07,02,06,13,17.60
2015,07,02,06,14,17.60
2015,07,02,06,15,17.60
2015,07,02,06,16,17.60
2015,07,02,06,17,17.60
2015,07,02,06,18,17.60
2015,07,02,06,19,17.60
2015,07,02,06,20,17.70
2015,07,02,06,21,17.70
2015,07,02,06,22,17.70
2015,07,02,06,23,17.80
2015,07,02,06,24,17.80
2015,07,02,06,25,17.90
2015,07,02,06,26,18.00
2015,07,02,06,27,18.00
2015,07,02,06,28,18.10
2015,07,02,06,29,18.20
2015,07,02,06,30,18.20
2015,07,02,06,31,18.30
2015,07,02,06,32,18.40
2015,07,02,06,33,18.40
2015,07,02,06,34,18.50
2015,07,02,06,35,18.60
2015,07,02,06,36,18.70
2015,07,02,06,37,18.80
2015,07,02,06,38,18.90
2015,07,02,06,39,19.00
2015,07,02,06,40,19.10
2015,07,02,06,41,19.20
2015,07,02,06,42,19.30
2015,07,02,06,43,19.30
2015,07,02,06,44,19.40
2015,07,02,06,45,19.40
2015,07,02,06,46,19.50
2015,07,02,06,47,19.50
2015,07,02,06,48,19.60
2015,07,02,06,49,19.70
2015,07,02,06,50,19.80
2015,07,02,06,51,19.90
2015,07,02,06,52,20.00
2015,07,02,06,53,20.00
2015,07,02,06,54,20.20
2015,07,02,06,55,20.30
2015,07,02,06,56,20.40
2015,07,02,06,57,20.60
2015,07,02,06,58,20.70
2015,07,02,06,59,20.70
2015,07,02,07,00,20.80
2015,07,02,07,01,20.80
2015,07,02,07,02,20.80
2015,07,02,07,03,20.80
2015,07,02,07,04,20.80
2015,07,02,07,05,20.90
2015,07,02,07,06,20.90
2015,07,02,07,07,21.00
2015,07,02,07,08,21.00
2015,07,02,07,09,21.10
2015,07,02,07,10,21.10
2015,07,02,07,11,21.10
2015,07,02,07,12,21.20
2015,07,02,07,13,21.30
2015,07,02,07,14,21.40
2015,07,02,07,15,21.50
2015,07,02,07,16,21.60
2015,07,02,07,17,21.70
2015,07,02,07,18,21.80
2015,07,02,07,19,22.00
2015,07,02,07,20,22.30
2015,07,02,07,21,22.50
2015,07,02,07,22,22.70
2015,07,02,07,23,22.80
2015,07,02,07,24,23.00
2015,07,02,07,25,23.00
2015,07,02,07,26,23.10
2015,07,02,07,27,23.20
2015,07,02,07,28,23.20
2015,07,02,07,29,23.30
2015,07,02,07,30,23.30
2015,07,02,07,31,23.30
2015,07,02,07,32,23.40
2015,07,02,07,33,23.50
2015,07,02,07,34,23.60
2015,07,02,07,35,23.70
2015,07,02,07,36,23.80
2015,07,02,07,37,23.90
2015,07,02,07,38,24.10
2015,07,02,07,39,24.20
2015,07,02,07,40,24.40
2015,07,02,07,41,24.50
2015,07,02,07,42,24.60
2015,07,02,07,43,24.70
2015,07,02,07,44,24.80
2015,07,02,07,45,24.80
2015,07,02,07,46,24.90
2015,07,02,07,47,24.90
2015,07,02,07,48,24.90
2015,07,02,07,49,25.00
2015,07,02,07,50,25.10
2015,07,02,07,51,25.20
2015,07,02,07,52,25.20
2015,07,02,07,53,25.30
2015,07,02,07,54,25.40
2015,07,02,07,55,25.40
2015,07,02,07,56,25.40
2015,07,02,07,57,25.50
2015,07,02,07,58,25.50
2015,07,02,07,59,25.30
2015,07,02,08,00,25.10
2015,07,02,08,01,24.90
2015,07,02,08,02,24.80
2015,07,02,08,03,24.70
2015,07,02,08,04,24.70
2015,07,02,08,05,24.60
2015,07,02,08,06,24.50
2015,07,02,08,07,24.40
2015,07,02,08,08,24.20
2015,07,02,08,09,24.10
2015,07,02,08,10,24.00
2015,07,02,08,11,23.90
2015,07,02,08,12,23.90
2015,07,02,08,13,24.00
2015,07,02,08,14,24.10
2015,07,02,08,15,24.10
2015,07,02,08,16,24.20
2015,07,02,08,17,24.10
2015,07,02,08,18,24.10
2015,07,02,08,19,24.20
2015,07,02,08,20,24.20
2015,07,02,08,21,24.40
2015,07,02,08,22,24.50
2015,07,02,08,23,24.70
2015,07,02,08,24,24.60
2015,07,02,08,25,24.50
2015,07,02,08,26,24.30
2015,07,02,08,27,24.30
2015,07,02,08,28,24.40
2015,07,02,08,29,24.40
2015,07,02,08,30,24.40
2015,07,02,08,31,24.50
2015,07,02,08,32,24.50
2015,07,02,08,33,24.60
2015,07,02,08,34,24.70
2015,07,02,08,35,24.80
2015,07,02,08,36,24.80
2015,07,02,08,37,24.70
2015,07,02,08,38,24.80
2015,07,02,08,39,24.80
2015,07,02,08,40,24.80
2015,07,02,08,41,24.80
2015,07,02,08,42,24.90
2015,07,02,08,43,25.10
2015,07,02,08,44,25.20
2015,07,02,08,45,25.10
2015,07,02,08,46,25.10
2015,07,02,08,47,25.20
2015,07,02,08,48,25.20
2015,07,02,08,49,25.30
2015,07,02,08,50,25.30
2015,07,02,08,51,25.30
2015,07,02,08,52,25.30
2015,07,02,08,53,25.30
2015,07,02,08,54,25.30
2015,07,02,08,55,25.20
2015,07,02,08,56,25.20
2015,07,02,08,57,25.20
2015,07,02,08,58,25.30
2015,07,02,08,59,25.30
2015,07,02,09,00,25.40
2015,07,02,09,01,25.50
2015,07,02,09,02,25.50
2015,07,02,09,03,25.50
2015,07,02,09,04,25.60
2015,07,02,09,05,25.60
2015,07,02,09,06,25.70
2015,07,02,09,07,25.80
2015,07,02,09,08,26.00
2015,07,02,09,09,26.20
2015,07,02,09,10,26.30
2015,07,02,09,11,26.30
2015,07,02,09,12,26.30
2015,07,02,09,13,26.20
2015,07,02,09,14,26.20
2015,07,02,09,15,26.00
2015,07,02,09,16,26.00
2015,07,02,09,17,25.80
2015,07,02,09,18,25.70
2015,07,02,09,19,25.60
2015,07,02,09,20,25.60
2015,07,02,09,21,25.70
2015,07,02,09,22,25.70
2015,07,02,09,23,25.70
2015,07,02,09,24,25.80
2015,07,02,09,25,25.90
2015,07,02,09,26,26.00
2015,07,02,09,27,26.00
2015,07,02,09,28,26.00
2015,07,02,09,29,25.90
2015,07,02,09,30,26.10
2015,07,02,09,31,26.20
2015,07,02,09,32,26.30
2015,07,02,09,33,26.30
2015,07,02,09,34,26.20
2015,07,02,09,35,26.10
2015,07,02,09,36,26.10
2015,07,02,09,37,26.00
2015,07,02,09,38,26.00
2015,07,02,09,39,25.90
2015,07,02,09,40,25.90
2015,07,02,09,41,25.90
2015,07,02,09,42,25.90
2015,07,02,09,43,25.80
2015,07,02,09,44,25.70
2015,07,02,09,45,25.80
2015,07,02,09,46,25.90
2015,07,02,09,47,26.00
2015,07,02,09,48,26.00
2015,07,02,09,49,26.00
2015,07,02,09,50,25.90
2015,07,02,09,51,25.90
2015,07,02,09,52,25.90
2015,07,02,09,53,26.00
2015,07,02,09,54,26.10
2015,07,02,09,55,26.30
2015,07,02,09,56,26.40
2015,07,02,09,57,26.60
2015,07,02,09,58,26.80
2015,07,02,09,59,26.90
2015,07,02,10,00,27.10
2015,07,02,10,01,27.30
2015,07,02,10,02,27.30
2015,07,02,10,03,27.20
2015,07,02,10,04,27.10
2015,07,02,10,05,26.90
2015,07,02,10,06,27.00
2015,07,02,10,07,27.10
2015,07,02,10,08,27.20
2015,07,02,10,09,27.30
2015,07,02,10,10,27.30
2015,07,02,10,11,27.20
2015,07,02,10,12,27.00
2015,07,02,10,13,26.80
2015,07,02,10,14,26.70
2015,07,02,10,15,26.70
2015,07,02,10,16,26.70
2015,07,02,10,17,26.70
2015,07,02,10,18,26.70
2015,07,02,10,19,26.70
2015,07,02,10,20,26.70
2015,07,02,10,21,26.60
2015,07,02,10,22,26.60
2015,07,02,10,23,26.70
2015,07,02,10,24,26.70
2015,07,02,10,25,26.80
2015,07,02,10,26,26.80
2015,07,02,10,27,26.90
2015,07,02,10,28,27.10
2015,07,02,10,29,27.20
2015,07,02,10,30,27.20
2015,07,02,10,31,27.40
2015,07,02,10,32,27.40
2015,07,02,10,33,27.40
2015,07,02,10,34,27.50
2015,07,02,10,35,27.50
2015,07,02,10,36,27.60
2015,07,02,10,37,27.70
2015,07,02,10,38,27.70
2015,07,02,10,39,27.80
2015,07,02,10,40,27.90
2015,07,02,10,41,27.80
2015,07,02,10,42,27.80
2015,07,02,10,43,27.70
2015,07,02,10,44,27.70
2015,07,02,10,45,27.80
2015,07,02,10,46,27.80
2015,07,02,10,47,27.90
2015,07,02,10,48,27.90
2015,07,02,10,49,27.90
2015,07,02,10,50,28.00
2015,07,02,10,51,28.10
2015,07,02,10,52,28.30
2015,07,02,10,53,28.40
2015,07,02,10,54,28.40
2015,07,02,10,55,28.40
2015,07,02,10,56,28.40
2015,07,02,10,57,28.40
2015,07,02,10,58,28.40
2015,07,02,10,59,28.40
2015,07,02,11,00,28.30
2015,07,02,11,01,28.30
2015,07,02,11,02,28.30
2015,07,02,11,03,28.30
2015,07,02,11,04,28.40
2015,07,02,11,05,28.50
2015,07,02,11,06,28.60
2015,07,02,11,07,28.70
2015,07,02,11,08,28.80
2015,07,02,11,09,28.90
2015,07,02,11,10,28.80
2015,07,02,11,11,28.70
2015,07,02,11,12,28.70
2015,07,02,11,13,28.70
2015,07,02,11,14,28.70
2015,07,02,11,15,28.80
2015,07,02,11,16,28.70
2015,07,02,11,17,28.70
2015,07,02,11,18,28.60
2015,07,02,11,19,28.60
2015,07,02,11,20,28.40
2015,07,02,11,21,28.30
2015,07,02,11,22,28.30
2015,07,02,11,23,28.30
2015,07,02,11,24,28.30
2015,07,02,11,25,28.40
2015,07,02,11,26,28.40
2015,07,02,11,27,28.50
2015,07,02,11,28,28.60
2015,07,02,11,29,28.70
2015,07,02,11,30,28.70
2015,07,02,11,31,28.70
2015,07,02,11,32,28.60
2015,07,02,11,33,28.60
2015,07,02,11,34,28.70
2015,07,02,11,35,28.70
2015,07,02,11,36,28.50
2015,07,02,11,37,28.30
2015,07,02,11,38,28.20
2015,07,02,11,39,28.20
2015,07,02,11,40,28.20
2015,07,02,11,41,28.20
2015,07,02,11,42,28.20
2015,07,02,11,43,28.10
2015,07,02,11,44,28.10
2015,07,02,11,45,28.10
2015,07,02,11,46,28.20
2015,07,02,11,47,28.30
2015,07,02,11,48,28.30
2015,07,02,11,49,28.40
2015,07,02,11,50,28.50
2015,07,02,11,51,28.60
2015,07,02,11,52,28.60
2015,07,02,11,53,28.50
2015,07,02,11,54,28.40
2015,07,02,11,55,28.50
2015,07,02,11,56,28.60
2015,07,02,11,57,28.70
2015,07,02,11,58,28.80
2015,07,02,11,59,28.90
2015,07,02,12,00,28.80
2015,07,02,12,01,28.50
2015,07,02,12,02,28.40
2015,07,02,12,03,28.30
2015,07,02,12,04,28.30
2015,07,02,12,05,28.30
2015,07,02,12,06,28.30
2015,07,02,12,07,28.30
2015,07,02,12,08,28.30
2015,07,02,12,09,28.30
2015,07,02,12,10,28.20
2015,07,02,12,11,28.10
2015,07,02,12,12,28.00
2015,07,02,12,13,27.90
2015,07,02,12,14,27.80
2015,07,02,12,15,27.80
2015,07,02,12,16,27.80
2015,07,02,12,17,27.80
2015,07,02,12,18,27.80
2015,07,02,12,19,27.80
2015,07,02,12,20,27.80
2015,07,02,12,21,27.70
2015,07,02,12,22,27.70
2015,07,02,12,23,27.60
2015,07,02,12,24,27.60
2015,07,02,12,25,27.60
2015,07,02,12,26,27.60
2015,07,02,12,27,27.60
2015,07,02,12,28,27.60
2015,07,02,12,29,27.70
2015,07,02,12,30,27.70
2015,07,02,12,31,27.70
2015,07,02,12,32,27.70
2015,07,02,12,33,27.70
2015,07,02,12,34,27.70
2015,07,02,12,35,27.70
2015,07,02,12,36,27.70
2015,07,02,12,37,27.70
2015,07,02,12,38,27.70
2015,07,02,14,36,26.60
2015,07,02,14,37,26.60
2015,07,02,14,38,26.70
2015,07,02,14,39,26.80
2015,07,02,14,40,26.90
2015,07,02,14,41,26.80
2015,07,02,14,42,26.80
2015,07,02,14,43,26.80
2015,07,02,14,44,26.80
2015,07,02,14,45,26.90
2015,07,02,14,46,27.00
2015,07,02,14,47,27.00
2015,07,02,14,48,27.10
2015,07,02,14,49,27.20
2015,07,02,14,50,27.30
2015,07,02,14,51,27.20
2015,07,02,14,52,27.00
2015,07,02,14,53,26.90
2015,07,02,14,54,26.80
2015,07,02,14,55,26.80
2015,07,02,14,56,26.80
2015,07,02,14,57,26.80
2015,07,02,14,58,26.80
2015,07,02,14,59,26.80
2015,07,02,15,00,26.90
2015,07,02,15,01,26.90
2015,07,02,15,02,26.90
2015,07,02,15,03,26.90
2015,07,02,15,04,27.00
2015,07,02,15,05,27.10
2015,07,02,15,06,27.00
2015,07,02,15,07,27.00
2015,07,02,15,08,27.10
2015,07,02,15,09,27.20
2015,07,02,15,10,27.30
2015,07,02,15,11,27.40
2015,07,02,15,12,27.50
2015,07,02,15,13,27.70
2015,07,02,15,14,27.70
2015,07,02,15,15,27.70
2015,07,02,15,16,27.70
2015,07,02,15,17,27.70
2015,07,02,15,18,27.70
2015,07,02,15,19,27.70
2015,07,02,15,20,27.70
2015,07,02,15,21,27.70
2015,07,02,15,22,27.70
2015,07,02,15,23,27.70
2015,07,02,15,24,27.70
2015,07,02,15,25,27.60
2015,07,02,15,26,27.60
2015,07,02,15,27,27.60
2015,07,02,15,28,27.60
2015,07,02,15,29,27.70
2015,07,02,15,30,27.80
2015,07,02,15,31,27.90
2015,07,02,15,32,27.90
2015,07,02,15,33,27.90
2015,07,02,15,34,27.80
2015,07,02,15,35,27.80
2015,07,02,15,36,27.70
2015,07,02,15,37,27.70
2015,07,02,15,38,27.70
2015,07,02,15,39,27.70
2015,07,02,15,40,27.60
2015,07,02,15,41,27.60
2015,07,02,15,42,27.60
2015,07,02,15,43,27.50
2015,07,02,15,44,27.40
2015,07,02,15,45,27.40
2015,07,02,15,46,27.30
2015,07,02,15,47,27.30
2015,07,02,15,48,27.40
2015,07,02,15,49,27.40
2015,07,02,15,50,27.60
2015,07,02,15,51,27.70
2015,07,02,15,52,27.80
2015,07,02,15,53,27.90
2015,07,02,15,54,28.00
2015,07,02,15,55,28.10
2015,07,02,15,56,28.20
2015,07,02,15,57,28.10
2015,07,02,15,58,28.00
2015,07,02,15,59,28.00
2015,07,02,16,00,28.00
2015,07,02,16,01,28.10
2015,07,02,16,02,28.10
2015,07,02,16,03,28.20
2015,07,02,16,04,28.20
2015,07,02,16,05,28.20
2015,07,02,16,06,28.20
2015,07,02,16,07,28.20
2015,07,02,16,08,28.20
2015,07,02,16,09,28.20
2015,07,02,16,10,28.30
2015,07,02,16,11,28.30
2015,07,02,16,12,28.30
2015,07,02,16,13,28.40
2015,07,02,16,14,28.40
2015,07,02,16,15,28.40
2015,07,02,16,16,28.40
2015,07,02,16,17,28.40
2015,07,02,16,18,28.40
2015,07,02,16,19,28.50
2015,07,02,16,20,28.40
2015,07,02,16,21,28.40
2015,07,02,16,22,28.40
2015,07,02,16,23,28.20
2015,07,02,16,24,28.10
2015,07,02,16,25,28.10
2015,07,02,16,26,28.10
2015,07,02,16,27,28.20
2015,07,02,16,28,28.30
2015,07,02,16,29,28.30
2015,07,02,16,30,28.40
2015,07,02,16,31,28.40
2015,07,02,16,32,28.50
2015,07,02,16,33,28.60
2015,07,02,16,34,28.60
2015,07,02,16,35,28.50
2015,07,02,16,36,28.50
2015,07,02,16,37,28.50
2015,07,02,16,38,28.50
2015,07,02,16,39,28.60
2015,07,02,16,40,28.60
2015,07,02,16,41,28.70
2015,07,02,16,42,28.70
2015,07,02,16,43,28.70
2015,07,02,16,44,28.70
2015,07,02,16,45,28.70
2015,07,02,16,46,28.70
2015,07,02,16,47,28.70
2015,07,02,16,48,28.70
2015,07,02,16,49,28.80
2015,07,02,16,50,28.80
2015,07,02,16,51,28.80
2015,07,02,16,52,28.80
2015,07,02,16,53,28.80
2015,07,02,16,54,28.70
2015,07,02,16,55,28.70
2015,07,02,16,56,28.60
2015,07,02,16,57,28.60
2015,07,02,16,58,28.70
2015,07,02,16,59,28.70
2015,07,02,17,00,28.80
2015,07,02,17,01,28.70
2015,07,02,17,02,28.70
2015,07,02,17,03,28.70
2015,07,02,17,04,28.60
2015,07,02,17,05,28.40
2015,07,02,17,06,28.30
2015,07,02,17,07,28.10
2015,07,02,17,08,28.10
2015,07,02,17,09,28.00
2015,07,02,17,10,27.90
2015,07,02,17,11,27.80
2015,07,02,17,12,27.70
2015,07,02,17,13,27.70
2015,07,02,17,14,27.80
2015,07,02,17,15,27.90
2015,07,02,17,16,28.00
2015,07,02,17,17,28.20
2015,07,02,17,18,28.30
2015,07,02,17,19,28.40
2015,07,02,17,20,28.40
2015,07,02,17,21,28.40
2015,07,02,17,22,28.40
2015,07,02,17,23,28.30
2015,07,02,17,24,28.30
2015,07,02,17,25,28.40
2015,07,02,17,26,28.40
2015,07,02,17,27,28.40
2015,07,02,17,28,28.40
2015,07,02,17,29,28.30
2015,07,02,17,30,28.20
2015,07,02,17,31,28.20
2015,07,02,17,32,28.20
2015,07,02,17,33,28.20
2015,07,02,17,34,28.20
2015,07,02,17,35,28.20
2015,07,02,17,36,28.10
2015,07,02,17,37,28.10
2015,07,02,17,38,28.10
2015,07,02,17,39,28.10
2015,07,02,17,40,28.10
2015,07,02,17,41,28.00
2015,07,02,17,42,28.00
2015,07,02,17,43,27.90
2015,07,02,17,44,27.80
2015,07,02,17,45,27.80
2015,07,02,17,46,27.70
2015,07,02,17,47,27.70
2015,07,02,17,48,27.60
2015,07,02,17,49,27.50
2015,07,02,17,50,27.40
2015,07,02,17,51,27.40
2015,07,02,17,52,27.40
2015,07,02,17,53,27.40
2015,07,02,17,54,27.50
2015,07,02,17,55,27.50
2015,07,02,17,56,27.50
2015,07,02,17,57,27.40
2015,07,02,17,58,27.30
2015,07,02,17,59,27.30
2015,07,02,18,00,27.30
2015,07,02,18,01,27.40
2015,07,02,18,02,27.40
2015,07,02,18,03,27.50
2015,07,02,18,04,27.60
2015,07,02,18,05,27.70
2015,07,02,18,06,27.80
2015,07,02,18,07,27.90
2015,07,02,18,08,27.90
2015,07,02,18,09,28.00
2015,07,02,18,10,28.00
2015,07,02,18,11,28.10
2015,07,02,18,12,28.10
2015,07,02,18,13,28.10
2015,07,02,18,14,28.00
2015,07,02,18,15,28.00
2015,07,02,18,16,28.00
2015,07,02,18,17,28.00
2015,07,02,18,18,28.00
2015,07,02,18,19,27.90
2015,07,02,18,20,27.90
2015,07,02,18,21,28.00
2015,07,02,18,22,28.00
2015,07,02,18,23,28.00
2015,07,02,18,24,28.00
2015,07,02,18,25,28.10
2015,07,02,18,26,28.10
2015,07,02,18,27,28.20
2015,07,02,18,28,28.20
2015,07,02,18,29,28.20
2015,07,02,18,30,28.30
2015,07,02,18,31,28.30
2015,07,02,18,32,28.30
2015,07,02,18,33,28.30
2015,07,02,18,34,28.30
2015,07,02,18,35,28.30
2015,07,02,18,36,28.20
2015,07,02,18,37,28.20
2015,07,02,18,38,28.10
2015,07,02,18,39,28.00
2015,07,02,18,40,28.00
2015,07,02,18,41,27.90
2015,07,02,18,42,27.90
2015,07,02,18,43,27.80
2015,07,02,18,44,27.80
2015,07,02,18,45,27.70
2015,07,02,18,46,27.60
2015,07,02,18,47,27.50
2015,07,02,18,48,27.40
2015,07,02,18,49,27.30
2015,07,02,18,50,27.20
2015,07,02,18,51,27.10
2015,07,02,18,52,27.00
2015,07,02,18,53,26.90
2015,07,02,18,54,26.90
2015,07,02,18,55,26.80
2015,07,02,18,56,26.80
2015,07,02,18,57,26.80
2015,07,02,18,58,26.80
2015,07,02,18,59,26.80
2015,07,02,19,00,26.80
2015,07,02,19,01,26.90
2015,07,02,19,02,26.90
2015,07,02,19,03,26.90
2015,07,02,19,04,26.90
2015,07,02,19,05,26.90
2015,07,02,19,06,26.90
2015,07,02,19,07,26.90
2015,07,02,19,08,26.90
2015,07,02,19,09,26.90
2015,07,02,19,10,26.90
2015,07,02,19,11,26.80
2015,07,02,19,12,26.80
2015,07,02,19,13,26.70
2015,07,02,19,14,26.60
2015,07,02,19,15,26.50
2015,07,02,19,16,26.50